Tracking 29799 objects as of 10-Oct-2024
HD Live streaming from Space Station
objects crossing your sky now

STARLINK-11298

Track STARLINK-11298 now!
10-day predictions


NORAD ID: 61211
Int'l Code: 2024-171M
Perigee: 346.2 km
Apogee: 347.3 km
Inclination: 53.2 °
Period: 91.3 minutes
Semi major axis: 6717 km
RCS: Unknown
Launch date: September 20, 2024
Source: United States (US)
Launch site: AIR FORCE WESTERN TEST RANGE (AFWTR)
Your satellite tracking list
Your tracking list is empty




NASA's NSSDC Master Catalog

Two Line Element Set (TLE):
1 61211U 24171M   24284.58334491 -.00097961  00000-0 -60032-3 0  9991
2 61211  53.1580 196.2936 0000821 104.6169 318.9911 15.76771089  4400
Source of the keplerian elements: AFSPC